Location: Newark
(41.9000°N, 12.4833°E)
Time: 21:52:29
(UTC+00:00)

NOAA 18 - Pass Details

Date: 23 May 2019
Orbit: 840 x 861 km, 99.1° (Epoch: 19 June)

Event Time Altitude Azimuth Distance (km) Brightness Sun altitude
Rises 20:29:30 0° 208° (SSW) 3,418 8.1 -17.6°
Reaches altitude 10° 20:32:39 10° 227° (SW) 2,490 7.6 -18.0°
Maximum altitude 20:36:19 18° 268° (W) 1,995 7.6 -18.4°
Drops below altitude 10° 20:40:00 10° 310° (NW) 2,505 8.8 -18.8°
Sets 20:43:13 0° 329° (NNW) 3,448 10.0 -19.2°
